When you browse on this site, cookies collect data to enhance your experience and personalize the content and advertising you see.
Visit our Privacy Policy to learn more. By continuing to use the site, you agree to this use of cookies and data.
  • In United Kingdom
  • List of Countries
  • For 7 days
  • Water Temperature
  • Weather Map
  • Weather Widgets
  • user-avatar
    Login

    Hourly Weather Salem

    Today, 26 August, Monday

    Time Temperature Precipitation Wind Pressure Humidity
    00:00 +14°C° 0 mm 1 mps 761 mmHg 69%
    01:00 +13°C° 0 mm 1 mps 761 mmHg 70%
    02:00 +13°C° 0 mm 1 mps 761 mmHg 70%
    03:00 +13°C° 0 mm 1 mps 761 mmHg 70%
    04:00 +12°C° 0 mm 1 mps 761 mmHg 70%
    05:00 +13°C° 0 mm 1 mps 761 mmHg 68%
    06:00 +14°C° 0 mm 1 mps 760 mmHg 65%
    07:00 +15°C° 0 mm 1 mps 760 mmHg 63%
    08:00 +17°C° 0 mm 2 mps 760 mmHg 57%
    09:00 +20°C° 0 mm 3 mps 760 mmHg 52%
    10:00 +22°C° 0 mm 3 mps 759 mmHg 46%
    11:00 +25°C° 0 mm 3 mps 759 mmHg 41%
    12:00 +27°C° 0 mm 4 mps 758 mmHg 36%
    13:00 +29°C° 0 mm 4 mps 757 mmHg 31%
    14:00 +30°C° 0 mm 4 mps 757 mmHg 29%
    15:00 +30°C° 0 mm 4 mps 757 mmHg 28%
    16:00 +32°C° 0 mm 4 mps 757 mmHg 26%
    17:00 +29°C° 0 mm 4 mps 756 mmHg 32%
    18:00 +27°C° 0 mm 4 mps 756 mmHg 38%
    19:00 +24°C° 0 mm 3 mps 756 mmHg 44%
    20:00 +22°C° 0 mm 3 mps 756 mmHg 49%
    21:00 +20°C° 0 mm 2 mps 757 mmHg 53%
    22:00 +18°C° 0 mm 2 mps 757 mmHg 58%
    23:00 +17°C° 0 mm 2 mps 757 mmHg 59%

    Tomorrow, 27 August, Tuesday

    Time Temperature Precipitation Wind Pressure Humidity
    00:00 +16°C° 0 mm 1 mps 757 mmHg 61%
    01:00 +16°C° 0 mm 1 mps 756 mmHg 62%
    02:00 +15°C° 0 mm 1 mps 756 mmHg 63%
    03:00 +15°C° 0 mm 1 mps 756 mmHg 65%
    04:00 +14°C° 0 mm 1 mps 756 mmHg 67%
    05:00 +15°C° 0 mm 1 mps 756 mmHg 64%
    06:00 +16°C° 0 mm 1 mps 755 mmHg 62%
    07:00 +18°C° 0 mm 1 mps 755 mmHg 60%
    08:00 +20°C° 0 mm 2 mps 755 mmHg 51%
    09:00 +24°C° 0 mm 2 mps 755 mmHg 42%
    10:00 +27°C° 0 mm 2 mps 754 mmHg 33%
    11:00 +30°C° 0 mm 3 mps 754 mmHg 29%
    12:00 +33°C° 0 mm 3 mps 753 mmHg 25%
    13:00 +36°C° 0 mm 3 mps 753 mmHg 21%
    14:00 +37°C° 0 mm 3 mps 752 mmHg 20%
    15:00 +38°C° 0 mm 3 mps 752 mmHg 19%
    16:00 +38°C° 0 mm 4 mps 751 mmHg 18%
    17:00 +35°C° 0 mm 3 mps 752 mmHg 23%
    18:00 +31°C° 0 mm 2 mps 752 mmHg 28%
    19:00 +28°C° 0 mm 2 mps 752 mmHg 34%
    20:00 +26°C° 0 mm 2 mps 752 mmHg 39%
    21:00 +24°C° 0 mm 1 mps 752 mmHg 45%
    22:00 +22°C° 0 mm 1 mps 753 mmHg 50%
    23:00 +21°C° 0 mm 1 mps 752 mmHg 53%

    Day after tomorrow, 28 August, Wednesday

    Time Temperature Precipitation Wind Pressure Humidity
    00:00 +21°C° 0 mm 1 mps 752 mmHg 55%
    01:00 +20°C° 0 mm 1 mps 752 mmHg 57%
    02:00 +17°C° 0 mm 0 mps 752 mmHg 59%
    03:00 +16°C° 0 mm 0 mps 752 mmHg 61%
    04:00 +16°C° 0 mm 0 mps 752 mmHg 64%
    05:00 +17°C° 0 mm 0 mps 752 mmHg 61%
    06:00 +18°C° 0 mm 0 mps 752 mmHg 58%
    07:00 +19°C° 0 mm 0 mps 752 mmHg 55%
    08:00 +22°C° 0 mm 0 mps 752 mmHg 47%
    09:00 +25°C° 0 mm 0 mps 753 mmHg 40%
    10:00 +30°C° 0 mm 1 mps 753 mmHg 32%
    11:00 +32°C° 0 mm 1 mps 753 mmHg 29%
    12:00 +34°C° 0 mm 1 mps 752 mmHg 26%
    13:00 +37°C° 0 mm 1 mps 752 mmHg 22%
    14:00 +37°C° 0 mm 1 mps 752 mmHg 22%
    15:00 +37°C° 0 mm 1 mps 752 mmHg 22%
    16:00 +37°C° 0 mm 1 mps 752 mmHg 22%
    17:00 +34°C° 0 mm 2 mps 752 mmHg 30%
    18:00 +30°C° 0 mm 2 mps 752 mmHg 38%
    19:00 +26°C° 0 mm 2 mps 753 mmHg 46%
    20:00 +24°C° 0 mm 2 mps 753 mmHg 50%
    21:00 +23°C° 0 mm 2 mps 754 mmHg 53%
    22:00 +21°C° 0 mm 1 mps 754 mmHg 57%
    23:00 +20°C° 0.1 mm 1 mps 754 mmHg 60%

    29 August, Thursday

    Time Temperature Precipitation Wind Pressure Humidity
    00:00 +19°C° 0.1 mm 1 mps 754 mmHg 64%
    01:00 +18°C° 0.1 mm 1 mps 754 mmHg 68%
    02:00 +18°C° 0.2 mm 1 mps 754 mmHg 72%
    03:00 +18°C° 0.2 mm 1 mps 754 mmHg 76%
    04:00 +16°C° 0.2 mm 1 mps 755 mmHg 80%
    05:00 +18°C° 0.4 mm 1 mps 755 mmHg 81%
    06:00 +18°C° 0.4 mm 1 mps 755 mmHg 82%
    07:00 +17°C° 0.4 mm 0 mps 755 mmHg 83%
    08:00 +21°C° 0.3 mm 1 mps 756 mmHg 73%
    09:00 +24°C° 0.3 mm 1 mps 756 mmHg 63%
    10:00 +26°C° 0.3 mm 1 mps 756 mmHg 54%
    11:00 +28°C° 0 mm 1 mps 756 mmHg 45%
    12:00 +30°C° 0 mm 2 mps 756 mmHg 37%
    13:00 +32°C° 0 mm 2 mps 755 mmHg 29%
    14:00 +33°C° 0 mm 3 mps 755 mmHg 29%
    15:00 +33°C° 0 mm 4 mps 755 mmHg 30%
    16:00 +33°C° 0 mm 4 mps 755 mmHg 30%
    17:00 +29°C° 0 mm 3 mps 756 mmHg 40%
    18:00 +25°C° 0 mm 3 mps 756 mmHg 51%
    19:00 +21°C° 0 mm 2 mps 756 mmHg 61%
    20:00 +19°C° 0 mm 2 mps 757 mmHg 71%
    21:00 +18°C° 0 mm 2 mps 757 mmHg 80%
    22:00 +16°C° 0 mm 2 mps 757 mmHg 89%
    23:00 +16°C° 0 mm 1 mps 757 mmHg 91%

    30 August, Friday

    Time Temperature Precipitation Wind Pressure Humidity
    00:00 +15°C° 0 mm 1 mps 757 mmHg 93%
    01:00 +15°C° 0 mm 1 mps 758 mmHg 95%
    02:00 +14°C° 0 mm 1 mps 758 mmHg 95%
    03:00 +14°C° 0 mm 1 mps 758 mmHg 95%
    04:00 +14°C° 0 mm 1 mps 758 mmHg 95%
    05:00 +14°C° 0 mm 0 mps 758 mmHg 92%
    06:00 +14°C° 0 mm 0 mps 758 mmHg 88%
    07:00 +15°C° 0 mm 0 mps 758 mmHg 85%
    08:00 +20°C° 0 mm 1 mps 758 mmHg 74%
    09:00 +22°C° 0 mm 1 mps 758 mmHg 63%
    10:00 +25°C° 0 mm 1 mps 757 mmHg 53%
    11:00 +27°C° 0 mm 1 mps 757 mmHg 46%
    12:00 +29°C° 0 mm 1 mps 757 mmHg 40%
    13:00 +31°C° 0 mm 1 mps 757 mmHg 34%
    14:00 +31°C° 0 mm 1 mps 757 mmHg 33%
    15:00 +31°C° 0 mm 2 mps 756 mmHg 32%
    16:00 +32°C° 0 mm 2 mps 756 mmHg 31%
    17:00 +28°C° 0 mm 2 mps 756 mmHg 42%
    18:00 +25°C° 0 mm 2 mps 757 mmHg 53%
    19:00 +21°C° 0 mm 2 mps 757 mmHg 64%
    20:00 +19°C° 0 mm 2 mps 757 mmHg 72%
    21:00 +18°C° 0 mm 2 mps 758 mmHg 80%
    22:00 +16°C° 0 mm 1 mps 758 mmHg 88%
    23:00 +15°C° 0 mm 1 mps 758 mmHg 91%

    31 August, Saturday

    Time Temperature Precipitation Wind Pressure Humidity
    00:00 +15°C° 0 mm 1 mps 758 mmHg 93%
    01:00 +14°C° 0 mm 1 mps 758 mmHg 96%
    02:00 +14°C° 0 mm 1 mps 758 mmHg 96%
    03:00 +13°C° 0 mm 1 mps 758 mmHg 96%
    04:00 +13°C° 0 mm 1 mps 758 mmHg 96%
    05:00 +14°C° 0 mm 1 mps 758 mmHg 93%
    06:00 +15°C° 0 mm 1 mps 758 mmHg 90%
    07:00 +14°C° 0 mm 0 mps 758 mmHg 86%
    08:00 +17°C° 0 mm 0 mps 758 mmHg 75%
    09:00 +22°C° 0 mm 1 mps 758 mmHg 64%
    10:00 +25°C° 0 mm 1 mps 757 mmHg 52%
    11:00 +27°C° 0 mm 1 mps 757 mmHg 46%
    12:00 +29°C° 0 mm 1 mps 757 mmHg 40%
    13:00 +31°C° 0 mm 1 mps 757 mmHg 34%
    14:00 +31°C° 0 mm 1 mps 757 mmHg 33%
    15:00 +31°C° 0 mm 1 mps 756 mmHg 33%
    16:00 +31°C° 0 mm 2 mps 756 mmHg 32%
    17:00 +28°C° 0 mm 2 mps 756 mmHg 42%
    18:00 +25°C° 0 mm 1 mps 757 mmHg 52%
    19:00 +23°C° 0 mm 1 mps 757 mmHg 62%
    20:00 +21°C° 0 mm 1 mps 757 mmHg 69%
    21:00 +20°C° 0 mm 1 mps 757 mmHg 76%
    22:00 +19°C° 0 mm 1 mps 758 mmHg 83%
    23:00 +18°C° 0 mm 1 mps 757 mmHg 85%
    Show more